STARLINK-36033, 66893

Orbit data source: Space-Track

STARLINK-36033, 66893 is a payload satellite owned by SpaceX/Seattle (US) in LEO that was launched on Thu, 04 Dec 2025 UTC via an FALCON 9 launch vehicle from the Air Force Western Test Range (AFWTR). Payload-class satellites include a variety of spacecraft equipped with specific instruments for various scientific and technological missions. These include communications satellites like Starlink; space stations such as the ISS; scientific satellites like the Hubble; Earth observation satellites from companies like Planet Labs, Umbra, and HawkEye 360; GPS; miniature CubeSats for education and research; and military/defense satellites.

Loading next visibility...
Identifier
66893, 2025-283R
Orbit
LEO
Country
Flag of USUS
Related business
Manufacturer
SpaceX/Seattle
Mission
Operational Commercial Communications
Bus & Motor
STARLINK V2MO, Unknown motor
Mass
575 kg wet, ~530 kg dry
Launch date (UTC)
2025-12-04 (7 months ago)
Launch vehicle
FALCON 9
Launch site
Air Force Western Test Range (AFWTR)
Object type
Payload
Rocket body
Debris
Shape & HBR
Box + 2 Pan, 17.7 m
Radar Cross Section
36.964 m², Large (>1 m²)

Expand to show TLE details & history
Last TLE update: 1 day ago

TLE from 1 day ago
0 STARLINK-36033
1 66893U 25283R   26170.67753917 -.00005554  00000-0 -17555-3 0  9990
2 66893  53.1597 270.8223 0000945  52.2723 307.8364 15.30198940 31451
Epoch: 2026-06-19T16:15Z
TLE epoch observation values (Epoch: 2026-06-19T16:15:39.384Z)
Latitude
0.00004°
Longitude
119.00515°
Altitude
475.721 km
Speed
7.629 km/s
True Right ascension
18h 03m 17s
True Declination
0° 00' 00"
Sunlit
Object was in full shadow at epoch
Visualization orbit readout
Latitude
Unknown
Longitude
Unknown
Altitude
Unknown
Speed
Unknown
Apparent Right ascension
Unknown
Apparent Declination
Unknown
Sunlit
N/A
Visualization observer readout
Local Sidereal Time
07:16:24
Azimuth
Unknown
Elevation
Unknown
Doppler factor
Unknown
Orbital elements
Apogee altitude
476.122 km
Perigee altitude
474.827 km
Semi-major axis
6,853.612 km
Eccentricity
0.00009
Inclination
53.1597°
RAAN
270.8223°
Arg. of periapsis
52.2723°
True anomaly
307.82785°
Mean anomaly
307.8364°
Eccentric anomaly
307.83212°
Mean motion
3.82529 °/min
Orbital period
94.11 mins
BSTAR
-0.00017555
Loading maneuver chart data...
Computing Atmospheric mass density...
Loading historical data...
Loading historical data...
Loading historical data...
Loading historical data...
Loading historical data...
Loading historical data...
Loading historical data...

Documentation

Showing up to 5 results
|